This is the latest recevied weather packets stored in our database for station/object W1GK. If no packets are shown the sender has not sent any weather packets the latest 10 day(s).
| Time | Temp. | Humidity | Pressure | Rain* | Wind** | Luminosity | Snow |
|---|---|---|---|---|---|---|---|
| 1787718598 | 36.67° C | 16% | 1014.6 hPa | 0 mm | - | 0 W/m² | - |
| 1787717997 | 37.22° C | 16% | 1014.7 hPa | 0 mm | - | 0 W/m² | - |
| 1787717399 | 37.22° C | 16% | 1014.6 hPa | 0 mm | - | 0 W/m² | - |
| 1787716800 | 37.22° C | 16% | 1014.5 hPa | 0 mm | - | 0 W/m² | - |
| 1787716198 | 37.22° C | 16% | 1014.5 hPa | 0 mm | - | 0 W/m² | - |
| 1787715599 | 37.22° C | 17% | 1014.4 hPa | 0 mm | - | 0 W/m² | - |
| 1787714999 | 37.78° C | 17% | 1014.4 hPa | 0 mm | - | 0 W/m² | - |
| 1787714399 | 37.78° C | 17% | 1014.2 hPa | 0 mm | - | 0 W/m² | - |
| 1787713799 | 38.33° C | 16% | 1014.1 hPa | 0 mm | - | 0 W/m² | - |
| 1787713198 | 38.33° C | 16% | 1014 hPa | 0 mm | - | 0 W/m² | - |
| 1787712597 | 38.33° C | 16% | 1013.9 hPa | 0 mm | - | 0 W/m² | - |
| 1787711998 | 38.89° C | 16% | 1013.9 hPa | 0 mm | - | 0 W/m² | - |
| 1787711397 | 38.89° C | 16% | 1013.9 hPa | 0 mm | - | 0 W/m² | - |
| 1787710798 | 38.89° C | 16% | 1013.9 hPa | 0 mm | - | 0 W/m² | - |
| 1787710197 | 39.44° C | 16% | 1013.8 hPa | 0 mm | - | 9 W/m² | - |
| 1787709599 | 39.44° C | 15% | 1013.8 hPa | 0 mm | - | 18 W/m² | - |
| 1787708998 | 39.44° C | 15% | 1013.7 hPa | 0 mm | - | 25 W/m² | - |
| 1787708398 | 39.44° C | 15% | 1013.8 hPa | 0 mm | - | 35 W/m² | - |
| 1787707798 | 39.44° C | 15% | 1013.9 hPa | 0 mm | - | 113 W/m² | - |
| 1787707198 | 40° C | 15% | 1013.9 hPa | 0 mm | - | 56 W/m² | - |
| 1787706600 | 40.56° C | 14% | 1013.9 hPa | 0 mm | - | 156 W/m² | - |
| 1787705998 | 40° C | 15% | 1013.9 hPa | 0 mm | - | 197 W/m² | - |
| 1787705398 | 40.56° C | 14% | 1013.9 hPa | 0 mm | - | 88 W/m² | - |
| 1787704798 | 40.56° C | 14% | 1013.9 hPa | 0 mm | - | 183 W/m² | - |
| 1787704198 | 40° C | 14% | 1013.9 hPa | 0 mm | - | 271 W/m² | - |
* Rain latest hour (hover to see other rain measurements)
** Current wind speed in m/s (hover to see current wind gust speed)